Location: ?????????
(54.7630°N, 39.4991°E)
Time: 20:40:57
(UTC+00:00)

Cosmos 1605 Rocket - Pass Details

Date: 14 April 2026
Orbit: 945 x 1004 km, 82.9° (Epoch: 11 May)

Event Time Altitude Azimuth Distance (km) Brightness Sun altitude
Exits shadow 20:17:09 40° 212° (SSW) 1,360 4.4 -24.2°
Maximum altitude 20:19:24 70° 284° (WNW) 1,007 4.1 -24.3°
Drops below altitude 10° 20:25:32 10° 8° (N) 2,693 7.2 -24.5°
Sets 20:28:04 0° 11° (N) 3,649 8.0 -24.6°
